Location: Bottom School (historical)
(37.9078°N, 89.3593°W)
Time: 20:11:19
(UTC+00:00)

SL-4 R/B - Pass Details

Date: 08 July 2022
Orbit: 425 x 653 km, 51.6° (Epoch: 16 August)

Event Time Altitude Azimuth Distance (km) Brightness Sun altitude
Exits shadow 04:25:39 13° 42° (NE) 1,373 4.3 -25.5°
Drops below altitude 10° 04:26:13 10° 44° (NE) 1,601 4.6 -25.5°
Sets 04:28:23 0° 48° (NE) 2,481 5.6 -25.7°
